weather.gov     
National Weather Service

Terminal Aerodrome Forecast
NWS Homepage
This page is being discontinued on March 12, 2014.
The same data is available at this site. Please update your bookmarks.
Thank you, and we apologize for the inconvenience.
Please send an email to SR-SRH.Webmaster@noaa.gov with any concerns.


Current Version
Previous Version:    01  02  03  04  05  06  07  08  09  10  11  12  13  14  15  16  17  18  19  20  21  22  23  24  25  26  27  28  29  30  
   31  32  33  34  35  36  37  38  39  40  41  42  43  44  45  46  47  
[Printable]
049
FTUS43 KDLH 232300 RRA
TAFBRD
TAF
KBRD 232356Z 2400/2424 30007KT P6SM SCT010 OVC040
      TEMPO 2400/2403 4SM -DZ BR OVC010
     FM240300 31012KT 3SM -FZDZSN BR OVC010
     FM241000 32012G20KT 3SM -SN BLSN OVC012
     FM241400 33016G27KT 5SM -SN BLSN OVC020=


U.S. Dept. of Commerce
NOAA National Weather Service
1325 East West Highway
Silver Spring, MD 20910
E-mail: w-nws.webmaster@noaa.gov
Page last modified: May 16, 2007
NATIONAL WEATHER SERVICE: for Safety, for Work, for Fun - FOR LIFE